Showing default

HULIANWANG DIGUI-183, 100208

Orbit data source: Space-Track

HULIANWANG DIGUI-183, 100208 is a payload satellite owned by Zhongguo Xingwang (CN) in LEO that was launched on Tue, 04 Aug 2026 UTC launched from the Wenchang Satellite Launch Center (WSC). Payload-class satellites include a variety of spacecraft equipped with specific instruments for various scientific and technological missions. These include communications satellites like Starlink; space stations such as the ISS; scientific satellites like the Hubble; Earth observation satellites from companies like Planet Labs, Umbra, and HawkEye 360; GPS; miniature CubeSats for education and research; and military/defense satellites.

Loading next visibility...
Identifier
100208, 2026-176F
Orbit
LEO
Country
Flag of CNCN / PRC
Related business
Manufacturer
CAST?
Mission
Operational spacecraft
Bus & Motor
XINGWANG C, Unknown motor
Mass
~700 kg wet, ~700 kg dry
Launch date (UTC)
2026-08-04 (1 month ago)
Launch vehicle
Unknown
Launch site
Wenchang Satellite Launch Center (WSC)
Object type
Payload
Rocket body
Debris
Shape & HBR
BOX + 2 PAN, 5.0 m
Radar Cross Section
Large (>1 m²)

Expand to show TLE details & history
Last TLE update: 11 hours ago

TLE from 11 hours ago
0 HULIANWANG DIGUI-183
1 A0208U 26176F   26249.46918707 -.00000072  00000-0  11109-3 0  9992
2 A0208  49.9935 274.2303 0000099 329.6619  30.4247 13.29326942  4438
Epoch: 2026-09-06T11:15Z
TLE epoch observation values (Epoch: 2026-09-06T11:15:37.762Z)
Latitude
-0.00005°
Longitude
119.75905°
Altitude
1,149.744 km
Speed
7.279 km/s
True Right ascension
18h 16m 55s
True Declination
0° 00' 00"
Sunlit
Object was in daylight at epoch
Visualization orbit readout
Latitude
Unknown
Longitude
Unknown
Altitude
Unknown
Speed
Unknown
Apparent Right ascension
Unknown
Apparent Declination
Unknown
Sunlit
N/A
Visualization observer readout
Local Sidereal Time
13:52:36
Azimuth
Unknown
Elevation
Unknown
Doppler factor
Unknown
Orbital elements
Apogee altitude
1,150.084 km
Perigee altitude
1,149.935 km
Semi-major axis
7,528.146 km
Eccentricity
0.00001
Inclination
49.9935°
RAAN
274.2303°
Arg. of periapsis
329.6619°
True anomaly
30.42527°
Mean anomaly
30.4247°
Eccentric anomaly
30.42499°
Mean motion
3.32285 °/min
Orbital period
108.34 mins
BSTAR
0.00011109
Loading maneuver chart data...
Computing Atmospheric mass density...
Loading historical data...
Loading historical data...
Loading historical data...
Loading historical data...
Loading historical data...
Loading historical data...
Loading historical data...

Documentation

Showing up to 5 results
|